Terminal Aerodrome Forecast
Issued by NWS

Home | Current Version | Previous Version | Text Only | Print | Product List | Glossary On
Versions: 1 2 3 4 5 6 7 8 9 10 11 12 13 14 15 16 17 18 19 20 21 22
000
FTUS41 KBGM 262300
TAFELM
TAF
KELM 262330Z 2700/2724 07005KT 1SM -SN OVC020
     FM270300 04005KT 3SM -SN OVC015
     FM271000 36005KT 4SM -SHSN OVC025
     FM271500 33012G22KT P6SM -SHSN OVC035=

USA.gov is the U.S. government's official web portal to all federal, state and local government web resources and services.